Latest Weather Observations for Redcliffe

IDQ60901

Issued at 1:21 pm EST Monday 22 December 2014 (issued every 10 minutes, with the page automatically refreshed every 10 minutes)

About weather observations | Map of Brisbane area stations | Latest observations for Brisbane area | Other Formats
Station Details ID: 040958 Name: REDCLIFFE Lat: -27.22 Lon: 153.09 Height: 12.6 m
Data from the previous 72 hours. | See also: Recent months at Redcliffe
Date/Time
EST
Tmp

°C
App
Tmp
°C
Dew
Point
°C
Rel
Hum
%
Delta-T

°C
Wind Press
QNH
hPa
Press
MSL
hPa
Rain
since
9 am
mm
Dir
 
Spd
km/h
Gust
km/h
Spd
kts
Gust
kts
22/01:00pm 26.7 24.5 14.8 48 7.2 ESE 20 26 11 14 1016.9 1016.8 0.0
22/12:30pm 26.6 24.2 13.7 45 7.6 ESE 19 26 10 14 1017.4 1017.3 0.0
22/12:00pm 26.7 24.0 14.5 47 7.3 ESE 22 28 12 15 1017.8 1017.7 0.0
22/11:30am 26.4 24.0 14.5 48 7.1 ESE 20 24 11 13 1018.1 1018.0 0.0
22/11:00am 26.2 23.5 14.6 48 6.9 ESE 22 26 12 14 1018.1 1018.0 0.0
22/10:30am 26.2 23.4 14.3 48 7.1 ESE 22 28 12 15 1018.3 1018.2 0.0
22/10:00am 26.4 24.2 14.8 49 7.0 SE 20 26 11 14 1018.4 1018.3 0.0
22/09:30am 25.9 23.3 15.0 51 6.6 SE 22 30 12 16 1018.1 1018.0 0.0
22/09:00am 25.7 22.8 15.1 52 6.4 SE 24 28 13 15 1018.1 1018.0 0.0
22/08:30am 25.7 24.0 15.7 54 6.1 ESE 19 26 10 14 1018.0 1017.9 0.0
22/08:00am 25.0 22.2 15.3 55 5.8 ESE 24 28 13 15 1017.8 1017.7 0.0
22/07:30am 24.6 22.2 15.5 57 5.5 ESE 22 28 12 15 1017.7 1017.6 0.0
22/07:00am 23.8 21.6 15.0 57 5.2 ESE 20 28 11 15 1017.4 1017.3 0.0
22/06:30am 24.1 21.9 15.9 60 5.0 SE 22 28 12 15 1017.1 1017.0 0.0
22/06:00am 23.1 21.0 15.2 61 4.7 SE 20 28 11 15 1016.9 1016.8 0.0
22/05:30am 23.0 21.1 15.3 62 4.6 SE 19 26 10 14 1016.7 1016.6 0.0
22/05:00am 22.9 21.9 15.7 64 4.3 SE 15 20 8 11 1016.3 1016.2 0.0
22/04:30am 22.8 21.3 15.4 63 4.4 ESE 17 22 9 12 1015.8 1015.7 0.0
22/04:00am 22.6 21.0 15.0 62 4.5 ESE 17 22 9 12 1015.6 1015.5 0.0
22/03:30am 22.8 21.2 15.1 62 4.6 ESE 17 22 9 12 1015.7 1015.6 0.0
22/03:00am 22.9 20.8 15.2 62 4.6 ESE 20 26 11 14 1015.8 1015.7 0.0
22/02:30am 23.1 21.6 15.4 62 4.6 ESE 17 24 9 13 1015.9 1015.8 0.0
22/02:00am 23.2 21.2 15.5 62 4.6 ESE 20 26 11 14 1016.1 1016.0 0.0
22/01:30am 23.3 20.5 15.4 61 4.7 ESE 24 30 13 16 1016.3 1016.2 0.0
22/01:00am 23.3 20.6 15.6 62 4.6 ESE 24 28 13 15 1016.7 1016.6 0.0
22/12:30am 23.3 20.3 15.9 63 4.5 ESE 26 30 14 16 1016.9 1016.8 0.0
22/12:00am 23.5 20.4 15.5 60 4.8 E 26 30 14 16 1017.2 1017.1 0.0
 
Date/Time
EST
Tmp

°C
App
Tmp
°C
Dew
Point
°C
Rel
Hum
%
Delta-T

°C
Wind Press
QNH
hPa
Press
MSL
hPa
Rain
since
9 am
mm
Dir
 
Spd
km/h
Gust
km/h
Spd
kts
Gust
kts
21/11:30pm 23.7 21.9 16.0 62 4.7 E 20 26 11 14 1018.1 1018.0 0.0
21/11:00pm 23.7 21.4 15.7 61 4.8 E 22 28 12 15 1018.3 1018.2 0.0
21/10:30pm 23.9 21.8 16.2 62 4.7 E 22 26 12 14 1018.4 1018.3 0.0
21/10:00pm 23.8 21.2 15.8 61 4.8 E 24 30 13 16 1018.0 1017.9 0.0
21/09:30pm 23.9 21.0 16.2 62 4.7 E 26 32 14 17 1017.8 1017.7 0.0
21/09:00pm 24.0 21.1 16.0 61 4.8 ESE 26 30 14 16 1017.8 1017.7 0.0
21/08:30pm 24.1 21.8 16.6 63 4.6 E 24 30 13 16 1017.9 1017.8 0.0
21/08:00pm 24.0 21.0 16.8 64 4.4 E 28 32 15 17 1017.4 1017.3 0.0
21/07:30pm 24.0 20.8 16.3 62 4.7 E 28 32 15 17 1017.4 1017.3 0.0
21/07:00pm 24.2 21.5 16.7 63 4.6 E 26 30 14 16 1017.1 1017.0 0.0
21/06:30pm 24.3 21.7 16.8 63 4.6 E 26 30 14 16 1016.6 1016.5 0.0
21/06:00pm 24.4 21.7 16.6 61 4.8 E 26 32 14 17 1016.3 1016.2 0.0
21/05:30pm 24.7 22.4 16.7 61 4.9 E 24 30 13 16 1015.9 1015.8 0.0
21/05:00pm 25.2 22.4 16.3 57 5.5 E 26 30 14 16 1015.7 1015.6 0.0
21/04:30pm 26.1 24.2 17.7 60 5.3 E 24 32 13 17 1015.5 1015.4 0.0
21/04:00pm 25.7 23.6 16.3 56 5.8 E 22 28 12 15 1015.5 1015.4 0.0
21/03:30pm 25.8 24.2 16.4 56 5.8 E 20 26 11 14 1015.7 1015.6 0.0
21/03:00pm 26.1 25.3 17.2 58 5.5 E 17 20 9 11 1015.8 1015.7 0.0
21/02:30pm 26.2 25.1 16.4 54 6.0 NE 17 24 9 13 1016.0 1015.9 0.0
21/02:00pm 26.0 25.3 17.4 59 5.4 NE 17 19 9 10 1016.3 1016.2 0.0
21/01:30pm 26.5 26.5 17.3 57 5.8 ENE 13 19 7 10 1016.6 1016.5 0.0
21/01:00pm 25.7 25.4 16.5 56 5.7 E 13 17 7 9 1016.9 1016.8 0.0
21/12:30pm 25.6 24.8 16.2 56 5.8 ENE 15 19 8 10 1017.1 1017.0 0.0
21/12:00pm 26.6 26.8 17.7 58 5.6 E 13 17 7 9 1017.4 1017.3 0.0
21/11:30am 25.9 25.1 17.0 58 5.5 E 17 19 9 10 1017.6 1017.5 0.0
21/11:00am 25.6 25.5 17.0 59 5.3 E 13 15 7 8 1018.1 1018.0 0.0
21/10:30am 25.7 25.5 16.8 58 5.5 ENE 13 15 7 8 1018.4 1018.3 0.0
21/10:00am 25.4 24.9 16.0 56 5.7 ENE 13 15 7 8 1018.5 1018.4 0.0
21/09:30am 24.9 24.8 16.1 58 5.4 ENE 11 13 6 7 1018.5 1018.4 0.0
21/09:00am 25.2 25.3 16.6 59 5.3 NE 11 13 6 7 1018.3 1018.2 0.0
21/08:30am 25.7 26.1 16.3 56 5.8 ENE 9 13 5 7 1018.3 1018.2 0.0
21/08:00am 25.4 24.7 16.5 58 5.5 ENE 15 20 8 11 1018.1 1018.0 0.0
21/07:30am 25.3 24.2 16.4 57 5.5 ENE 17 20 9 11 1017.8 1017.7 0.0
21/07:00am 25.0 23.7 16.7 60 5.1 E 19 24 10 13 1017.7 1017.6 0.0
21/06:30am 25.2 24.1 17.7 63 4.7 E 20 24 11 13 1017.5 1017.4 0.0
21/06:00am 24.1 22.5 16.1 61 4.9 E 19 24 10 13 1017.3 1017.2 0.0
21/05:30am 23.8 22.0 16.1 62 4.7 E 20 28 11 15 1017.0 1016.9 0.0
21/05:00am 23.4 21.3 16.2 64 4.4 E 22 28 12 15 1016.6 1016.5 0.0
21/04:30am 23.3 20.7 15.9 63 4.5 E 24 28 13 15 1016.1 1016.0 0.0
21/04:00am 23.3 20.7 15.9 63 4.5 E 24 28 13 15 1015.8 1015.7 0.0
21/03:30am 23.4 20.9 16.2 64 4.4 E 24 28 13 15 1015.7 1015.6 0.0
21/03:00am 23.4 20.8 16.0 63 4.5 E 24 28 13 15 1015.9 1015.8 0.0
21/02:30am 23.6 21.3 16.6 65 4.3 E 24 30 13 16 1015.9 1015.8 0.0
21/02:00am 23.5 21.4 16.1 63 4.5 E 22 30 12 16 1016.0 1015.9 0.0
21/01:30am 23.5 21.4 16.3 64 4.4 E 22 30 12 16 1016.1 1016.0 0.0
21/01:00am 23.6 21.7 16.6 65 4.3 E 22 26 12 14 1016.4 1016.3 0.0
21/12:30am 23.6 21.8 16.1 62 4.6 E 20 26 11 14 1016.6 1016.5 0.0
21/12:00am 23.8 21.7 16.3 63 4.6 E 22 26 12 14 1016.9 1016.8 0.0
 
Date/Time
EST
Tmp

°C
App
Tmp
°C
Dew
Point
°C
Rel
Hum
%
Delta-T

°C
Wind Press
QNH
hPa
Press
MSL
hPa
Rain
since
9 am
mm
Dir
 
Spd
km/h
Gust
km/h
Spd
kts
Gust
kts
20/11:30pm 23.8 21.4 16.3 63 4.6 E 24 28 13 15 1017.0 1016.9 0.0
20/11:00pm 23.9 21.1 16.4 63 4.6 E 26 30 14 16 1017.1 1017.0 0.0
20/10:30pm 23.8 21.5 16.6 64 4.4 E 24 30 13 16 1017.3 1017.2 0.0
20/10:00pm 24.0 21.2 16.3 62 4.7 E 26 30 14 16 1017.3 1017.2 0.0
20/09:30pm 24.1 21.2 16.1 61 4.9 E 26 32 14 17 1017.2 1017.1 0.0
20/09:00pm 24.2 21.2 15.9 59 5.0 E 26 32 14 17 1017.1 1017.0 0.0
20/08:30pm 24.2 21.3 16.2 61 4.9 E 26 32 14 17 1016.8 1016.7 0.0
20/08:00pm 24.3 21.5 16.3 61 4.9 E 26 30 14 16 1016.2 1016.1 0.0
20/07:30pm 24.3 21.3 16.8 63 4.6 E 28 33 15 18 1015.8 1015.7 0.0
20/07:00pm 24.4 21.3 16.6 61 4.8 E 28 32 15 17 1015.3 1015.2 0.0
20/06:30pm 24.6 21.3 17.1 63 4.6 E 30 35 16 19 1014.9 1014.8 0.0
20/06:00pm 25.1 22.5 17.8 64 4.6 ESE 28 33 15 18 1014.6 1014.5 0.0
20/05:30pm 25.0 22.7 17.5 63 4.7 E 26 28 14 15 1014.6 1014.5 0.0
20/05:00pm 25.2 22.3 17.9 64 4.6 ESE 30 33 16 18 1013.9 1013.8 0.0
20/04:30pm 25.6 22.4 17.3 60 5.2 ESE 30 35 16 19 1013.4 1013.3 0.0
20/04:00pm 25.8 22.6 17.2 59 5.4 ESE 30 35 16 19 1013.2 1013.1 0.0
20/03:30pm 26.2 22.8 17.6 59 5.4 E 32 37 17 20 1013.2 1013.1 0.0
20/03:00pm 26.4 23.4 17.7 58 5.5 ESE 30 35 16 19 1013.7 1013.6 0.0
20/02:30pm 26.4 23.2 17.2 57 5.7 ESE 30 33 16 18 1014.1 1014.0 0.0
20/02:00pm 27.2 23.7 16.5 52 6.6 ESE 30 33 16 18 1014.3 1014.2 0.0
20/01:30pm 27.4 24.6 17.3 54 6.3 ESE 28 32 15 17 1014.6 1014.5 0.0
20/01:00pm 27.0 24.4 17.8 57 5.8 ESE 28 33 15 18 1014.6 1014.5 0.0
20/12:30pm 26.5 23.3 16.4 53 6.2 ESE 28 32 15 17 1014.8 1014.7 0.0
20/12:00pm 27.5 24.9 17.9 55 6.1 ESE 28 32 15 17 1015.3 1015.2 0.0
20/11:30am 26.9 24.3 17.7 57 5.8 ESE 28 32 15 17 1015.5 1015.4 0.0
20/11:00am 25.9 23.4 17.0 58 5.5 ESE 26 32 14 17 1015.7 1015.6 0.0
20/10:30am 26.7 24.0 17.5 57 5.8 SE 28 32 15 17 1015.9 1015.8 0.0
20/10:00am 26.8 24.4 17.3 56 5.9 SE 26 30 14 16 1015.9 1015.8 0.0
20/09:30am 26.3 23.9 17.4 58 5.6 SSE 26 30 14 16 1016.0 1015.9 0.0
20/09:00am 26.5 24.4 18.1 60 5.3 SE 26 30 14 16 1016.0 1015.9 0.0
20/08:30am 25.9 23.6 17.5 59 5.3 SE 26 30 14 16 1015.9 1015.8 0.0
20/08:00am 26.1 24.0 18.0 61 5.1 SSE 26 30 14 16 1015.7 1015.6 0.0
20/07:30am 24.7 23.3 17.9 66 4.3 SSE 22 28 12 15 1015.6 1015.5 0.0
20/07:00am 24.7 23.6 17.7 65 4.4 S 20 26 11 14 1015.4 1015.3 0.0
20/06:30am 24.4 23.5 18.3 69 3.8 S 20 26 11 14 1015.0 1014.9 0.0
20/06:00am 23.5 22.0 17.7 70 3.6 S 22 28 12 15 1014.6 1014.5 0.0
20/05:30am 22.9 21.1 17.8 73 3.2 S 24 30 13 16 1014.3 1014.2 0.0
20/05:00am 22.6 20.4 17.9 75 2.9 S 26 30 14 16 1013.9 1013.8 0.0
20/04:30am 22.7 20.9 17.8 74 3.0 S 24 28 13 15 1013.7 1013.6 0.0
20/04:00am 22.8 21.8 17.9 74 3.1 S 20 26 11 14 1013.5 1013.4 0.0
20/03:30am 23.3 21.6 18.0 72 3.3 S 24 30 13 16 1013.4 1013.3 0.0
20/03:00am 23.8 21.1 18.4 72 3.4 SSE 30 35 16 19 1013.3 1013.2 0.0
20/02:30am 23.9 20.8 18.3 71 3.5 SSE 32 39 17 21 1013.1 1013.0 0.0
20/02:00am 24.0 20.9 18.4 71 3.5 SSE 32 39 17 21 1013.1 1013.0 0.0
20/01:30am 24.1 20.8 18.3 70 3.7 SSE 33 39 18 21 1013.2 1013.1 0.0
20/01:00am 24.2 20.7 18.8 72 3.4 SSE 35 39 19 21 1013.3 1013.2 0.0
20/12:30am 24.4 21.0 19.0 72 3.4 SSE 35 39 19 21 1013.7 1013.6 0.0
20/12:00am 24.7 20.6 18.2 67 4.1 SSE 37 43 20 23 1013.7 1013.6 0.0
 
Date/Time
EST
Tmp

°C
App
Tmp
°C
Dew
Point
°C
Rel
Hum
%
Delta-T

°C
Wind Press
QNH
hPa
Press
MSL
hPa
Rain
since
9 am
mm
Dir
 
Spd
km/h
Gust
km/h
Spd
kts
Gust
kts
19/11:30pm 24.9 21.3 19.3 71 3.6 SE 37 44 20 24 1013.8 1013.7 0.0
19/11:00pm 25.2 22.6 19.8 72 3.5 SE 33 37 18 20 1013.8 1013.7 0.0
19/10:30pm 25.8 24.1 18.0 62 4.9 SE 24 30 13 16 1013.7 1013.6 0.0
19/10:00pm 25.9 25.4 19.1 66 4.4 SE 20 26 11 14 1013.6 1013.5 0.0
19/09:30pm 25.4 27.1 20.9 76 3.0 ESE 13 17 7 9 1013.2 1013.1 0.0
19/09:00pm 25.4 26.5 21.3 78 2.7 E 17 19 9 10 1012.8 1012.7 0.0
19/08:30pm 25.6 26.2 21.3 77 2.8 ENE 20 24 11 13 1012.3 1012.2 0.0
19/08:00pm 25.6 26.1 21.1 76 3.0 NE 20 30 11 16 1011.7 1011.6 0.0
19/07:30pm 25.9 25.5 20.9 74 3.3 N 24 30 13 16 1010.6 1010.5 0.0
19/07:00pm 26.4 26.2 20.5 70 3.9 N 22 28 12 15 1010.1 1010.0 0.0
19/06:30pm 26.8 25.4 20.4 68 4.2 NNE 28 30 15 16 1009.8 1009.7 0.0
19/06:00pm 27.3 25.6 20.6 67 4.4 N 30 33 16 18 1009.6 1009.5 0.0
19/05:30pm 27.6 26.0 20.7 66 4.6 N 30 33 16 18 1009.3 1009.2 0.0
19/05:00pm 27.9 26.9 20.5 64 4.9 NNE 26 30 14 16 1008.9 1008.8 0.0
19/04:30pm 28.1 26.7 20.4 63 5.1 NNE 28 32 15 17 1008.7 1008.6 0.0
19/04:00pm 28.4 26.5 19.3 57 5.9 NE 28 30 15 16 1008.5 1008.4 0.0
19/03:30pm 28.9 27.6 19.8 58 6.0 NNE 26 30 14 16 1008.6 1008.5 0.0
19/03:00pm 29.0 27.5 20.2 59 5.8 NNE 28 30 15 16 1008.8 1008.7 0.0
19/02:30pm 28.7 26.8 19.3 56 6.1 NE 28 30 15 16 1009.1 1009.0 0.0
19/02:00pm 29.0 27.2 18.7 53 6.6 NE 26 30 14 16 1009.4 1009.3 0.0
19/01:30pm 28.8 27.6 20.0 59 5.8 NE 26 28 14 15 1009.6 1009.5 0.0

Latest Capital City Observations: Canberra | Sydney | Melbourne | Brisbane | Adelaide | Perth | Hobart | Darwin

Other Formats:

Comma delimited format used in spreadsheet applications
http://www.bom.gov.au/fwo/IDQ60901/IDQ60901.95591.axf

JavaScript Object Notation format (JSON) in row-major order
http://www.bom.gov.au/fwo/IDQ60901/IDQ60901.95591.json